This demonstration page uses our WeatherBlox Daily Observations layout. Learn more.

Left ArrowRight Arrow

44.8408, -93.29828

Hourly Observations for September 12, 2018

Temp ( °F °C ) Dew Point ( °F °C ) Humidity (%) Winds ( mph kmh ) Pressure ( in mb ) Visibility ( mi km ) Precip ( " mm )
12:53 am 00:53 Clear 73 22.8 62 16.7 69 69 SSW 14 22 29.94 1014 10 16 0.00 0.00
1:53 am 01:53 Clear 72 22.2 62 16.7 71 71 SSW 9 15 29.94 1014 10 16 0.00 0.00
2:53 am 02:53 Clear 71 21.7 62 16.7 73 73 SSW 10 17 29.94 1014 10 16 0.00 0.00
3:53 am 03:53 Clear 71 21.7 62 16.7 73 73 SSW 10 17 29.95 1014 10 16 0.00 0.00
4:53 am 04:53 Mostly Cloudy 70 21.1 62 16.7 76 76 SSW 8 13 29.97 1015 10 16 0.00 0.00
5:53 am 05:53 Mostly Cloudy 70 21.1 62 16.7 76 76 SSW 9 15 29.98 1015 10 16 0.00 0.00
6:53 am 06:53 Mostly Cloudy 70 21.1 62 16.7 76 76 S 8 13 29.98 1015 10 16 0.00 0.00
7:53 am 07:53 Mostly Cloudy 69 20.6 61 16.1 76 76 SSW 10 17 30.00 1016 10 16 0.00 0.00
8:53 am 08:53 Mostly Cloudy 71 21.7 62 16.7 73 73 SW 7 11 30.03 1017 10 16 0.00 0.00
9:53 am 09:53 Partly Cloudy 73 22.8 63 17.2 71 71 S 10 17 30.04 1017 10 16 0.00 0.00
10:53 am 10:53 Partly Cloudy 75 23.9 63 17.2 66 66 S 12 19 30.04 1017 10 16 0.00 0.00
11:53 am 11:53 Partly Cloudy 79 26.1 64 17.8 60 60 S 12 19 30.04 1017 10 16 0.00 0.00
12:53 pm 12:53 Partly Cloudy 81 27.2 64 17.8 57 57 S 15 24 30.02 1017 10 16 0.00 0.00
1:53 pm 13:53 Partly Cloudy 82 27.8 64 17.8 55 55 S 14 22 30.02 1017 10 16 0.00 0.00
2:53 pm 14:53 Mostly Sunny 83 28.3 62 16.7 49 49 S 14 22 30.01 1016 10 16 0.00 0.00
3:53 pm 15:53 Mostly Sunny 84 28.9 63 17.2 49 49 S 17 28 30.00 1016 10 16 0.00 0.00
4:53 pm 16:53 Mostly Sunny 84 28.9 62 16.7 48 48 S 16 26 30.00 1016 10 16 0.00 0.00
5:53 pm 17:53 Mostly Sunny 83 28.3 61 16.1 48 48 S 12 19 29.99 1016 10 16 0.00 0.00
6:53 pm 18:53 Sunny 82 27.8 60 15.6 47 47 S 13 20 30.00 1016 10 16 0.00 0.00
7:53 pm 19:53 Clear 77 25 61 16.1 58 58 SSE 9 15 30.00 1016 10 16 0.00 0.00
8:53 pm 20:53 Clear 75 23.9 61 16.1 62 62 SSE 8 13 30.01 1016 10 16 0.00 0.00
9:53 pm 21:53 Clear 74 23.3 61 16.1 64 64 SSE 10 17 30.01 1016 10 16 0.00 0.00
10:53 pm 22:53 Clear 74 23.3 59 15 60 60 S 14 22 30.02 1017 10 16 0.00 0.00
11:53 pm 23:53 Clear 71 21.7 59 15 66 66 SSE 13 20 30.03 1017 10 16 0.00 0.00

Powered by AerisWeather